,,PA_Meas_PMT16A,,PR_Meas_QMR101_102,,RH_Meas_QMH101,,SR_Meas_QMS101,,TA_Meas_QMH101,,GenWind,,GenWind,
time,status,PA,status,PR,status,RH,status,SR,status,TA,status,DirAvg,status,SpdAvg,
2010-01-17, 00:00:04,VALID,921.309,VALID,0,VALID,96.4286,VALID,0,VALID,20.2848,VALID,289,VALID,0,
2010-01-17, 00:01:04,VALID,921.268,VALID,0,VALID,96.5353,VALID,0,VALID,20.3058,VALID,289,VALID,0.166406,
2010-01-17, 00:02:04,VALID,921.264,VALID,0,VALID,96.5353,VALID,0,VALID,20.2848,VALID,289,VALID,0.208203,
2010-01-17, 00:03:04,VALID,921.245,VALID,0,VALID,96.5887,VALID,0,VALID,20.3043,VALID,289,VALID,0,
2010-01-17, 00:04:04,VALID,921.235,VALID,0,VALID,96.5811,VALID,0,VALID,20.2848,VALID,289,VALID,0.398047,
2010-01-17, 00:05:04,VALID,921.217,VALID,0,VALID,96.5963,VALID,0,VALID,20.2848,VALID,289,VALID,0.561719,
2010-01-17, 00:06:04,VALID,921.198,VALID,0,VALID,96.5811,VALID,0.107441,VALID,20.2442,VALID,289,VALID,0.457422,
2010-01-17, 00:07:04,VALID,921.16,VALID,0,VALID,96.5734,VALID,0.107441,VALID,20.2247,VALID,289,VALID,0.416406,
2010-01-17, 00:08:04,VALID,921.132,VALID,0,VALID,96.6192,VALID,0.107441,VALID,20.2037,VALID,289,VALID,0.640625,
2010-01-17, 00:09:04,VALID,921.084,VALID,0,VALID,96.6573,VALID,0.107441,VALID,20.2052,VALID,289,VALID,0.507813,
2010-01-17, 00:10:04,VALID,921.099,VALID,0,VALID,96.6802,VALID,0.214882,VALID,20.2247,VALID,289,VALID,0.430078,
2010-01-17, 00:11:04,VALID,921.091,VALID,0,VALID,96.6802,VALID,0.107441,VALID,20.1857,VALID,289,VALID,0.739453,
2010-01-17, 00:12:04,VALID,921.096,VALID,0,VALID,96.6878,VALID,0.107441,VALID,20.1857,VALID,289,VALID,0.785547,
2010-01-17, 00:13:04,VALID,921.06,VALID,0,VALID,96.7107,VALID,0.107441,VALID,20.1873,VALID,289,VALID,0.911328,
2010-01-17, 00:14:04,VALID,921.089,VALID,0,VALID,96.703,VALID,0.107441,VALID,20.1467,VALID,289,VALID,0.964453,
2010-01-17, 00:15:04,VALID,921.063,VALID,0,VALID,96.7411,VALID,0.107441,VALID,20.1467,VALID,289,VALID,0.874609,
2010-01-17, 00:16:04,VALID,921.08,VALID,0,VALID,96.7259,VALID,0.107441,VALID,20.1077,VALID,289,VALID,0.697266,
2010-01-17, 00:17:04,VALID,921.056,VALID,0,VALID,96.7793,VALID,0.107441,VALID,20.1272,VALID,289,VALID,0.43125,
2010-01-17, 00:18:04,VALID,921.068,VALID,0,VALID,96.7869,VALID,0.107441,VALID,20.1077,VALID,289,VALID,0.233594,
2010-01-17, 00:19:04,VALID,921.023,VALID,0,VALID,96.8021,VALID,0.107441,VALID,20.1288,VALID,289,VALID,0.556641,
2010-01-17, 00:20:04,VALID,921.011,VALID,0,VALID,96.8098,VALID,0.107441,VALID,20.0882,VALID,289,VALID,0.798047,
2010-01-17, 00:21:04,VALID,921.046,VALID,0,VALID,96.8403,VALID,0.107441,VALID,20.0688,VALID,288,VALID,0.899609,
2010-01-17, 00:22:04,VALID,921.028,VALID,0,VALID,96.8555,VALID,0.107441,VALID,20.0688,VALID,169,VALID,0.450391,
2010-01-17, 00:23:04,VALID,921.047,VALID,0,VALID,96.9012,VALID,0.107441,VALID,20.0882,VALID,169,VALID,0.387109,
2010-01-17, 00:24:04,VALID,921.036,VALID,0,VALID,96.8936,VALID,0.107441,VALID,20.0688,VALID,160,VALID,0.638672,
2010-01-17, 00:25:04,VALID,921.07,VALID,0,VALID,96.9394,VALID,0.107441,VALID,20.1093,VALID,160,VALID,0.909375,
2010-01-17, 00:26:04,VALID,921.042,VALID,0,VALID,96.9622,VALID,0.107441,VALID,20.0688,VALID,161,VALID,0.611719,
2010-01-17, 00:27:04,VALID,921.042,VALID,0,VALID,96.9622,VALID,0.107441,VALID,20.0688,VALID,160,VALID,0.429297,
2010-01-17, 00:28:04,VALID,921.053,VALID,0,VALID,96.9927,VALID,0.107441,VALID,20.0688,VALID,160,VALID,0.220313,
2010-01-17, 00:29:04,VALID,921.007,VALID,0,VALID,97.0003,VALID,0.107441,VALID,20.1077,VALID,160,VALID,0.230469,
2010-01-17, 00:30:04,VALID,921.034,VALID,0,VALID,97.0003,VALID,0.107441,VALID,20.1077,VALID,161,VALID,0.260547,
2010-01-17, 00:31:04,VALID,920.995,VALID,0,VALID,97.0232,VALID,0.107441,VALID,20.1288,VALID,160,VALID,0.0425781,
2010-01-17, 00:32:04,VALID,921.026,VALID,0,VALID,97.0156,VALID,0,VALID,20.1077,VALID,161,VALID,0,
2010-01-17, 00:33:04,VALID,921.04,VALID,0,VALID,97.0156,VALID,0,VALID,20.0882,VALID,161,VALID,0,
2010-01-17, 00:34:04,VALID,921.009,VALID,0,VALID,97.0385,VALID,0.107441,VALID,20.1077,VALID,160,VALID,0.0964844,
2010-01-17, 00:35:04,VALID,920.993,VALID,0,VALID,97.0766,VALID,0.107441,VALID,20.1483,VALID,160,VALID,0.342969,
2010-01-17, 00:36:04,VALID,921.016,VALID,0,VALID,97.1147,VALID,0.107441,VALID,20.1873,VALID,160,VALID,0.391016,
2010-01-17, 00:37:04,VALID,921.038,VALID,0,VALID,97.1147,VALID,0.107441,VALID,20.1662,VALID,160,VALID,0.326953,
2010-01-17, 00:38:04,VALID,921.043,VALID,0,VALID,97.0537,VALID,0.107441,VALID,20.1873,VALID,160,VALID,0.0980469,
2010-01-17, 00:39:04,VALID,921.065,VALID,0,VALID,97.0461,VALID,0.107441,VALID,20.1873,VALID,160,VALID,0.0257812,
2010-01-17, 00:40:04,VALID,921.047,VALID,0,VALID,97.1299,VALID,0.107441,VALID,20.2068,VALID,160,VALID,0,
2010-01-17, 00:41:04,VALID,921.045,VALID,0,VALID,97.0613,VALID,0,VALID,20.1873,VALID,160,VALID,0,
2010-01-17, 00:42:04,VALID,921.023,VALID,0,VALID,97.008,VALID,0,VALID,20.1873,VALID,160,VALID,0,
2010-01-17, 00:43:04,VALID,921.026,VALID,0,VALID,97.0156,VALID,0,VALID,20.1873,VALID,161,VALID,0.147266,
2010-01-17, 00:44:04,VALID,920.983,VALID,0,VALID,97.0842,VALID,0,VALID,20.2263,VALID,160,VALID,0.698438,
2010-01-17, 00:45:04,VALID,920.99,VALID,0,VALID,96.9546,VALID,0,VALID,20.2068,VALID,160,VALID,0.860547,
2010-01-17, 00:46:04,VALID,920.993,VALID,0,VALID,96.9775,VALID,0.107441,VALID,20.2068,VALID,160,VALID,0.742578,
2010-01-17, 00:47:04,VALID,921.008,VALID,0,VALID,96.8479,VALID,0,VALID,20.1873,VALID,160,VALID,1.00039,
2010-01-17, 00:48:04,VALID,920.978,VALID,0,VALID,96.7945,VALID,0,VALID,20.1288,VALID,359,VALID,0.798047,
2010-01-17, 00:49:04,VALID,920.938,VALID,0,VALID,96.7869,VALID,0,VALID,20.1077,VALID,359,VALID,0.617578,
2010-01-17, 00:50:04,VALID,920.916,VALID,0,VALID,96.8707,VALID,0,VALID,20.1093,VALID,359,VALID,0.565625,
2010-01-17, 00:51:04,VALID,920.888,VALID,0,VALID,96.9089,VALID,0,VALID,20.1093,VALID,359,VALID,0.410547,
2010-01-17, 00:52:04,VALID,920.836,VALID,0,VALID,96.8631,VALID,0,VALID,20.1303,VALID,359,VALID,0.623828,
2010-01-17, 00:53:04,VALID,920.795,VALID,0,VALID,96.8479,VALID,0,VALID,20.0898,VALID,359,VALID,0.636719,
2010-01-17, 00:54:04,VALID,920.778,VALID,0,VALID,96.9012,VALID,0.107441,VALID,20.0898,VALID,359,VALID,0.458984,
2010-01-17, 00:55:04,VALID,920.726,VALID,0,VALID,96.8555,VALID,0,VALID,20.0703,VALID,359,VALID,0.310547,
2010-01-17, 00:56:04,VALID,920.677,VALID,0,VALID,96.886,VALID,0.107441,VALID,20.0493,VALID,359,VALID,0.176953,
2010-01-17, 00:57:04,VALID,920.67,VALID,0,VALID,96.8707,VALID,0,VALID,20.0508,VALID,359,VALID,0.269141,
2010-01-17, 00:58:04,VALID,920.664,VALID,0,VALID,96.9012,VALID,0.107441,VALID,20.0508,VALID,360,VALID,0.385156,
2010-01-17, 00:59:04,VALID,920.649,VALID,0,VALID,96.9394,VALID,0.107441,VALID,20.0493,VALID,360,VALID,0.500781,
2010-01-17, 01:00:04,VALID,920.687,VALID,0,VALID,96.8784,VALID,0,VALID,20.0103,VALID,123,VALID,0.836328,
2010-01-17, 01:01:04,VALID,920.711,VALID,0,VALID,96.9241,VALID,0.107441,VALID,20.0298,VALID,159,VALID,0.376563,
2010-01-17, 01:02:04,VALID,920.717,VALID,0,VALID,96.9241,VALID,0.107441,VALID,20.0508,VALID,191,VALID,0.902344,
2010-01-17, 01:03:04,VALID,920.756,VALID,0,VALID,96.9698,VALID,0.107441,VALID,20.0493,VALID,167,VALID,0.723828,
2010-01-17, 01:04:04,VALID,920.725,VALID,0,VALID,96.9698,VALID,0,VALID,20.0493,VALID,176,VALID,1.12109,
2010-01-17, 01:05:04,VALID,920.714,VALID,0,VALID,96.9698,VALID,0,VALID,20.0298,VALID,176,VALID,0.925391,
2010-01-17, 01:06:04,VALID,920.733,VALID,0,VALID,96.9927,VALID,0.107441,VALID,20.0298,VALID,176,VALID,0.713672,
2010-01-17, 01:07:04,VALID,920.731,VALID,0,VALID,97.0232,VALID,0.107441,VALID,20.0298,VALID,176,VALID,0.762109,
2010-01-17, 01:08:04,VALID,920.71,VALID,0,VALID,97.0461,VALID,0.107441,VALID,20.0493,VALID,176,VALID,1.10938,
2010-01-17, 01:09:04,VALID,920.736,VALID,0,VALID,97.069,VALID,0.107441,VALID,20.0493,VALID,176,VALID,0.557422,
2010-01-17, 01:10:04,VALID,920.719,VALID,0,VALID,97.0537,VALID,0,VALID,20.0508,VALID,176,VALID,0.446484,
2010-01-17, 01:11:04,VALID,920.751,VALID,0,VALID,97.0613,VALID,0,VALID,20.0493,VALID,176,VALID,0.634375,
2010-01-17, 01:12:04,VALID,920.714,VALID,0,VALID,97.1071,VALID,0.107441,VALID,20.0898,VALID,176,VALID,0.459766,
2010-01-17, 01:13:04,VALID,920.696,VALID,0,VALID,97.1147,VALID,0,VALID,20.0688,VALID,176,VALID,0.616406,
2010-01-17, 01:14:04,VALID,920.659,VALID,0,VALID,97.0842,VALID,0.107441,VALID,20.0493,VALID,176,VALID,0.478125,
2010-01-17, 01:15:04,VALID,920.621,VALID,0,VALID,97.1223,VALID,0.107441,VALID,20.0508,VALID,176,VALID,0.878125,
2010-01-17, 01:16:04,VALID,920.587,VALID,0,VALID,97.0842,VALID,0,VALID,20.0703,VALID,151,VALID,1.19141,
2010-01-17, 01:17:04,VALID,920.54,VALID,0,VALID,97.1147,VALID,0.107441,VALID,20.0298,VALID,140,VALID,0.978906,
2010-01-17, 01:18:04,VALID,920.506,VALID,0,VALID,97.1223,VALID,0,VALID,20.0298,VALID,142,VALID,1.01133,
2010-01-17, 01:19:04,VALID,920.472,VALID,0,VALID,97.1223,VALID,0,VALID,20.0103,VALID,144,VALID,1.05469,
2010-01-17, 01:20:04,VALID,920.459,VALID,0,VALID,97.1376,VALID,0,VALID,20.0313,VALID,155,VALID,0.716797,
2010-01-17, 01:21:04,VALID,920.444,VALID,0,VALID,97.1223,VALID,0,VALID,20.0118,VALID,155,VALID,1.00117,
2010-01-17, 01:22:04,VALID,920.413,VALID,0,VALID,97.1376,VALID,0.107441,VALID,19.9908,VALID,155,VALID,0.651953,
2010-01-17, 01:23:04,VALID,920.412,VALID,0,VALID,97.1223,VALID,0.107441,VALID,19.9713,VALID,155,VALID,0.984766,
2010-01-17, 01:24:04,VALID,920.377,VALID,0,VALID,97.1452,VALID,0.107441,VALID,19.9728,VALID,155,VALID,0.94375,
2010-01-17, 01:25:04,VALID,920.376,VALID,0,VALID,97.1452,VALID,0,VALID,19.9728,VALID,155,VALID,0.569922,
2010-01-17, 01:26:04,VALID,920.377,VALID,0,VALID,97.1604,VALID,0,VALID,19.9533,VALID,155,VALID,0.894141,
2010-01-17, 01:27:04,VALID,920.396,VALID,0,VALID,97.1528,VALID,0,VALID,19.9518,VALID,155,VALID,0.826953,
2010-01-17, 01:28:04,VALID,920.365,VALID,0,VALID,97.1604,VALID,0.107441,VALID,19.9728,VALID,155,VALID,0.885547,
2010-01-17, 01:29:04,VALID,920.385,VALID,0,VALID,97.1604,VALID,0.107441,VALID,19.9728,VALID,168,VALID,0.956641,
2010-01-17, 01:30:04,VALID,920.395,VALID,0,VALID,97.1986,VALID,0,VALID,19.9728,VALID,156,VALID,0.976953,
2010-01-17, 01:31:04,VALID,920.414,VALID,0,VALID,97.1833,VALID,0,VALID,19.9728,VALID,135,VALID,0.803125,
2010-01-17, 01:32:04,VALID,920.396,VALID,0,VALID,97.1986,VALID,0,VALID,19.9923,VALID,134,VALID,0.532422,
2010-01-17, 01:33:04,VALID,920.401,VALID,0,VALID,97.1986,VALID,0.107441,VALID,19.9923,VALID,134,VALID,0.739062,
2010-01-17, 01:34:04,VALID,920.452,VALID,0,VALID,97.1757,VALID,0.107441,VALID,19.9923,VALID,134,VALID,1.4625,
2010-01-17, 01:35:04,VALID,920.439,VALID,0,VALID,97.1909,VALID,0,VALID,19.9923,VALID,168,VALID,1.49063,
2010-01-17, 01:36:04,VALID,920.413,VALID,0,VALID,97.2138,VALID,0,VALID,19.9923,VALID,194,VALID,1.15547,
2010-01-17, 01:37:04,VALID,920.449,VALID,0,VALID,97.2214,VALID,0,VALID,19.9923,VALID,194,VALID,1.07539,
2010-01-17, 01:38:04,VALID,920.434,VALID,0,VALID,97.2062,VALID,0,VALID,19.9923,VALID,197,VALID,1.22227,
2010-01-17, 01:39:04,VALID,920.41,VALID,0,VALID,97.2214,VALID,0,VALID,19.9923,VALID,200,VALID,1.1582,
2010-01-17, 01:40:04,VALID,920.399,VALID,0,VALID,97.2062,VALID,0,VALID,20.0118,VALID,200,VALID,1.18203,
2010-01-17, 01:41:04,VALID,920.397,VALID,0,VALID,97.1909,VALID,0,VALID,19.9923,VALID,200,VALID,0.673437,
2010-01-17, 01:42:04,VALID,920.37,VALID,0,VALID,97.229,VALID,0,VALID,19.9728,VALID,200,VALID,0.775391,
2010-01-17, 01:43:04,VALID,920.359,VALID,0,VALID,97.2062,VALID,0,VALID,19.9923,VALID,200,VALID,0.977734,
2010-01-17, 01:44:04,VALID,920.348,VALID,0,VALID,97.2214,VALID,0,VALID,19.9728,VALID,200,VALID,0.730469,
2010-01-17, 01:45:04,VALID,920.307,VALID,0,VALID,97.2367,VALID,0.107441,VALID,19.9728,VALID,200,VALID,0.527344,
2010-01-17, 01:46:04,VALID,920.292,VALID,0,VALID,97.2367,VALID,0,VALID,19.9728,VALID,200,VALID,0.868359,
2010-01-17, 01:47:04,VALID,920.276,VALID,0,VALID,97.2138,VALID,0,VALID,19.9728,VALID,200,VALID,0.412891,
2010-01-17, 01:48:04,VALID,920.223,VALID,0,VALID,97.1909,VALID,0,VALID,19.9533,VALID,200,VALID,0.646875,
2010-01-17, 01:49:04,VALID,920.246,VALID,0,VALID,97.229,VALID,0.107441,VALID,19.9323,VALID,200,VALID,0.798437,
2010-01-17, 01:50:04,VALID,920.269,VALID,0,VALID,97.2138,VALID,0,VALID,19.9338,VALID,200,VALID,1.10742,
2010-01-17, 01:51:04,VALID,920.264,VALID,0,VALID,97.2443,VALID,0.107441,VALID,19.9338,VALID,200,VALID,1.07539,
2010-01-17, 01:52:04,VALID,920.268,VALID,0,VALID,97.229,VALID,0,VALID,19.9128,VALID,200,VALID,0.911719,
2010-01-17, 01:53:04,VALID,920.277,VALID,0,VALID,97.2367,VALID,0,VALID,19.9338,VALID,200,VALID,0.794922,
2010-01-17, 01:54:04,VALID,920.293,VALID,0,VALID,97.229,VALID,0,VALID,19.8948,VALID,200,VALID,0.619531,
2010-01-17, 01:55:04,VALID,920.306,VALID,0,VALID,97.229,VALID,0,VALID,19.9143,VALID,200,VALID,0.917578,
2010-01-17, 01:56:04,VALID,920.278,VALID,0,VALID,97.2138,VALID,0,VALID,19.9143,VALID,199,VALID,1.02656,
2010-01-17, 01:57:04,VALID,920.282,VALID,0,VALID,97.2214,VALID,0,VALID,19.8753,VALID,199,VALID,0.648438,
2010-01-17, 01:58:04,VALID,920.301,VALID,0,VALID,97.2367,VALID,0,VALID,19.8948,VALID,199,VALID,1.02773,
2010-01-17, 01:59:04,VALID,920.301,VALID,0,VALID,97.229,VALID,0,VALID,19.8948,VALID,198,VALID,1.13398,
2010-01-17, 02:00:04,VALID,920.331,VALID,0,VALID,97.2367,VALID,0,VALID,19.9143,VALID,198,VALID,1.12344,
2010-01-17, 02:01:04,VALID,920.326,VALID,0,VALID,97.2443,VALID,0.107441,VALID,19.9143,VALID,198,VALID,1.0418,
2010-01-17, 02:02:04,VALID,920.29,VALID,0,VALID,97.2214,VALID,0,VALID,19.9143,VALID,198,VALID,0.767578,
2010-01-17, 02:03:04,VALID,920.288,VALID,0,VALID,97.2214,VALID,0.107441,VALID,19.9338,VALID,197,VALID,1.1082,
2010-01-17, 02:04:04,VALID,920.27,VALID,0,VALID,97.2443,VALID,0,VALID,19.9338,VALID,152,VALID,1.27656,
2010-01-17, 02:05:04,VALID,920.256,VALID,0,VALID,97.2519,VALID,0.107441,VALID,19.9533,VALID,152,VALID,0.833203,
2010-01-17, 02:06:04,VALID,920.229,VALID,0,VALID,97.229,VALID,0.107441,VALID,19.9533,VALID,152,VALID,0.547656,
2010-01-17, 02:07:04,VALID,920.232,VALID,0,VALID,97.2138,VALID,0,VALID,19.9338,VALID,151,VALID,0.7875,
2010-01-17, 02:08:04,VALID,920.163,VALID,0,VALID,97.2214,VALID,0.107441,VALID,19.9533,VALID,151,VALID,0.840625,
2010-01-17, 02:09:04,VALID,920.145,VALID,0,VALID,97.1986,VALID,0,VALID,19.9128,VALID,151,VALID,0.916016,
2010-01-17, 02:10:04,VALID,920.134,VALID,0,VALID,97.2062,VALID,0,VALID,19.9338,VALID,117,VALID,0.935547,
2010-01-17, 02:11:04,VALID,920.125,VALID,0,VALID,97.1986,VALID,0,VALID,19.9143,VALID,117,VALID,0.520312,
2010-01-17, 02:12:04,VALID,920.121,VALID,0,VALID,97.1681,VALID,0,VALID,19.9338,VALID,117,VALID,0.600391,
2010-01-17, 02:13:04,VALID,920.152,VALID,0,VALID,97.1833,VALID,0.107441,VALID,19.9143,VALID,117,VALID,0.482031,
2010-01-17, 02:14:04,VALID,920.144,VALID,0,VALID,97.1833,VALID,0,VALID,19.9338,VALID,117,VALID,0.691016,
2010-01-17, 02:15:04,VALID,920.159,VALID,0,VALID,97.1452,VALID,0,VALID,19.9143,VALID,117,VALID,0.974609,
2010-01-17, 02:16:04,VALID,920.18,VALID,0,VALID,97.1452,VALID,0,VALID,19.9143,VALID,117,VALID,0.716797,
2010-01-17, 02:17:04,VALID,920.164,VALID,0,VALID,97.1299,VALID,0,VALID,19.9533,VALID,117,VALID,0.560938,
2010-01-17, 02:18:04,VALID,920.139,VALID,0,VALID,97.1681,VALID,0,VALID,19.9533,VALID,117,VALID,0.319922,
2010-01-17, 02:19:04,VALID,920.157,VALID,0,VALID,97.1528,VALID,0,VALID,19.9518,VALID,117,VALID,0.305078,
2010-01-17, 02:20:04,VALID,920.125,VALID,0,VALID,97.1299,VALID,0,VALID,19.9923,VALID,117,VALID,0.292188,
2010-01-17, 02:21:04,VALID,920.167,VALID,0,VALID,97.1071,VALID,0.107441,VALID,19.9728,VALID,117,VALID,0.235938,
2010-01-17, 02:22:04,VALID,920.159,VALID,0,VALID,97.069,VALID,0,VALID,19.9518,VALID,117,VALID,0.203125,
2010-01-17, 02:23:04,VALID,920.142,VALID,0,VALID,97.0918,VALID,0.107441,VALID,19.9728,VALID,117,VALID,0.0308594,
2010-01-17, 02:24:04,VALID,920.112,VALID,0,VALID,97.0842,VALID,0,VALID,20.0118,VALID,117,VALID,0.408594,
2010-01-17, 02:25:04,VALID,920.14,VALID,0,VALID,97.069,VALID,0,VALID,20.0118,VALID,117,VALID,0.548047,
2010-01-17, 02:26:04,VALID,920.152,VALID,0,VALID,97.069,VALID,0.107441,VALID,20.0118,VALID,117,VALID,0.541797,
2010-01-17, 02:27:04,VALID,920.129,VALID,0,VALID,97.0842,VALID,0,VALID,19.9923,VALID,117,VALID,0.928125,
2010-01-17, 02:28:04,VALID,920.145,VALID,0,VALID,97.0308,VALID,0.107441,VALID,20.0118,VALID,177,VALID,0.983984,
2010-01-17, 02:29:04,VALID,920.117,VALID,0,VALID,97.0232,VALID,0,VALID,19.9923,VALID,176,VALID,0.828125,
2010-01-17, 02:30:04,VALID,920.121,VALID,0,VALID,97.0232,VALID,0,VALID,19.9713,VALID,159,VALID,0.745703,
2010-01-17, 02:31:04,VALID,920.113,VALID,0,VALID,97.0232,VALID,0.107441,VALID,20.0118,VALID,159,VALID,1.17383,
2010-01-17, 02:32:04,VALID,920.07,VALID,0,VALID,97.0232,VALID,0,VALID,20.0118,VALID,159,VALID,0.457031,
2010-01-17, 02:33:04,VALID,920.054,VALID,0,VALID,97.0232,VALID,0,VALID,20.0118,VALID,159,VALID,0.582422,
2010-01-17, 02:34:04,VALID,920.041,VALID,0,VALID,97.0156,VALID,0,VALID,19.9908,VALID,159,VALID,0.573047,
2010-01-17, 02:35:04,VALID,920.044,VALID,0,VALID,97.008,VALID,0,VALID,20.0118,VALID,159,VALID,0.533984,
2010-01-17, 02:36:04,VALID,920.04,VALID,0,VALID,97.0003,VALID,0,VALID,19.9908,VALID,159,VALID,0.713281,
2010-01-17, 02:37:04,VALID,920.005,VALID,0,VALID,96.9927,VALID,0.107441,VALID,19.9923,VALID,159,VALID,0.735156,
2010-01-17, 02:38:04,VALID,919.987,VALID,0,VALID,97.008,VALID,0.107441,VALID,20.0118,VALID,159,VALID,0.425781,
2010-01-17, 02:39:04,VALID,919.967,VALID,0,VALID,97.008,VALID,0.107441,VALID,20.0118,VALID,122,VALID,0.825781,
2010-01-17, 02:40:04,VALID,919.996,VALID,0,VALID,96.9622,VALID,0,VALID,19.9728,VALID,111,VALID,1.07344,
2010-01-17, 02:41:04,VALID,919.96,VALID,0,VALID,96.9698,VALID,0,VALID,19.9923,VALID,111,VALID,0.629687,
2010-01-17, 02:42:04,VALID,919.953,VALID,0,VALID,96.9394,VALID,0.107441,VALID,19.9923,VALID,111,VALID,0.736328,
2010-01-17, 02:43:04,VALID,919.916,VALID,0,VALID,96.9089,VALID,0,VALID,19.9728,VALID,111,VALID,0.765234,
2010-01-17, 02:44:04,VALID,919.96,VALID,0,VALID,96.9089,VALID,0.107441,VALID,19.9923,VALID,111,VALID,0.883984,
2010-01-17, 02:45:04,VALID,919.952,VALID,0,VALID,96.8936,VALID,0,VALID,19.9923,VALID,111,VALID,0.672656,
2010-01-17, 02:46:04,VALID,919.924,VALID,0,VALID,96.886,VALID,0,VALID,19.9713,VALID,111,VALID,0.649219,
2010-01-17, 02:47:04,VALID,919.942,VALID,0,VALID,96.8403,VALID,0.107441,VALID,20.0118,VALID,111,VALID,0.517969,
2010-01-17, 02:48:04,VALID,919.942,VALID,0,VALID,96.8555,VALID,0,VALID,20.0118,VALID,111,VALID,0.238281,
2010-01-17, 02:49:04,VALID,919.961,VALID,0,VALID,96.8326,VALID,0,VALID,20.0118,VALID,111,VALID,0.346484,
2010-01-17, 02:50:04,VALID,919.977,VALID,0,VALID,96.8174,VALID,0.107441,VALID,19.9908,VALID,111,VALID,0.614453,
2010-01-17, 02:51:04,VALID,919.929,VALID,0,VALID,96.7945,VALID,0.107441,VALID,20.0313,VALID,111,VALID,0.517187,
2010-01-17, 02:52:04,VALID,919.912,VALID,0,VALID,96.7945,VALID,0.107441,VALID,20.0118,VALID,111,VALID,0.219922,
2010-01-17, 02:53:04,VALID,919.911,VALID,0,VALID,96.8021,VALID,0.107441,VALID,20.0298,VALID,111,VALID,0.292578,
2010-01-17, 02:54:04,VALID,919.862,VALID,0,VALID,96.825,VALID,0.107441,VALID,20.0703,VALID,111,VALID,0.0421875,
2010-01-17, 02:55:04,VALID,919.831,VALID,0,VALID,96.7488,VALID,0.107441,VALID,20.0298,VALID,111,VALID,0.871484,
2010-01-17, 02:56:04,VALID,919.792,VALID,0,VALID,96.7335,VALID,0,VALID,20.0508,VALID,111,VALID,0.258594,
2010-01-17, 02:57:04,VALID,919.753,VALID,0,VALID,96.7183,VALID,0.107441,VALID,20.0298,VALID,111,VALID,0.776953,
2010-01-17, 02:58:04,VALID,919.737,VALID,0,VALID,96.7183,VALID,0.107441,VALID,20.0313,VALID,111,VALID,0.569141,
2010-01-17, 02:59:04,VALID,919.71,VALID,0,VALID,96.7107,VALID,0.107441,VALID,20.0313,VALID,111,VALID,0.498828,
2010-01-17, 03:00:04,VALID,919.662,VALID,0,VALID,96.703,VALID,0,VALID,20.0508,VALID,111,VALID,0.483203,
2010-01-17, 03:01:04,VALID,919.655,VALID,0,VALID,96.703,VALID,0.107441,VALID,19.9908,VALID,111,VALID,0.469531,
2010-01-17, 03:02:04,VALID,919.651,VALID,0,VALID,96.6649,VALID,0,VALID,20.0313,VALID,111,VALID,0.789453,
2010-01-17, 03:03:04,VALID,919.633,VALID,0,VALID,96.6878,VALID,0,VALID,20.0118,VALID,111,VALID,0.560547,
2010-01-17, 03:04:04,VALID,919.647,VALID,0,VALID,96.6954,VALID,0.107441,VALID,20.0103,VALID,111,VALID,0.835938,
2010-01-17, 03:05:04,VALID,919.64,VALID,0,VALID,96.703,VALID,0.107441,VALID,20.0103,VALID,111,VALID,0.6875,
2010-01-17, 03:06:04,VALID,919.663,VALID,0,VALID,96.6497,VALID,0.107441,VALID,20.0118,VALID,138,VALID,0.706641,
2010-01-17, 03:07:04,VALID,919.63,VALID,0,VALID,96.6268,VALID,0.107441,VALID,20.0118,VALID,138,VALID,0.721484,
2010-01-17, 03:08:04,VALID,919.611,VALID,0,VALID,96.6115,VALID,0.107441,VALID,20.0313,VALID,155,VALID,0.746094,
2010-01-17, 03:09:04,VALID,919.594,VALID,0,VALID,96.5963,VALID,0.107441,VALID,20.0313,VALID,155,VALID,1.05195,
2010-01-17, 03:10:04,VALID,919.587,VALID,0,VALID,96.5506,VALID,0,VALID,19.9908,VALID,155,VALID,0.759766,
2010-01-17, 03:11:04,VALID,919.557,VALID,0,VALID,96.5734,VALID,0,VALID,19.9923,VALID,155,VALID,0.586328,
2010-01-17, 03:12:04,VALID,919.555,VALID,0,VALID,96.5887,VALID,0,VALID,19.9923,VALID,155,VALID,0.578906,
2010-01-17, 03:13:04,VALID,919.495,VALID,0,VALID,96.5658,VALID,0.107441,VALID,19.9728,VALID,155,VALID,0.818359,
2010-01-17, 03:14:04,VALID,919.485,VALID,0,VALID,96.6039,VALID,0.107441,VALID,19.9533,VALID,155,VALID,0.585938,
2010-01-17, 03:15:04,VALID,919.474,VALID,0,VALID,96.6497,VALID,0,VALID,19.9338,VALID,155,VALID,0.255078,
2010-01-17, 03:16:04,VALID,919.466,VALID,0,VALID,96.6573,VALID,0,VALID,19.9338,VALID,155,VALID,0.617969,
2010-01-17, 03:17:04,VALID,919.465,VALID,0,VALID,96.703,VALID,0,VALID,19.9128,VALID,155,VALID,0.423047,
2010-01-17, 03:18:04,VALID,919.485,VALID,0,VALID,96.7564,VALID,0.107441,VALID,19.9533,VALID,155,VALID,0.140625,
2010-01-17, 03:19:04,VALID,919.485,VALID,0,VALID,96.7793,VALID,0,VALID,19.9143,VALID,155,VALID,0.171484,
2010-01-17, 03:20:04,VALID,919.467,VALID,0,VALID,96.7488,VALID,0,VALID,19.9338,VALID,155,VALID,0.0289063,
2010-01-17, 03:21:04,VALID,919.455,VALID,0,VALID,96.7564,VALID,0,VALID,19.9143,VALID,155,VALID,0,
2010-01-17, 03:22:04,VALID,919.487,VALID,0,VALID,96.7488,VALID,0,VALID,19.9353,VALID,155,VALID,0,
2010-01-17, 03:23:04,VALID,919.482,VALID,0,VALID,96.7488,VALID,0,VALID,19.9158,VALID,155,VALID,0,
2010-01-17, 03:24:04,VALID,919.502,VALID,0,VALID,96.7945,VALID,0,VALID,19.8753,VALID,155,VALID,0,
2010-01-17, 03:25:04,VALID,919.454,VALID,0,VALID,96.8098,VALID,0.107441,VALID,19.8948,VALID,155,VALID,0,
2010-01-17, 03:26:04,VALID,919.511,VALID,0,VALID,96.825,VALID,0.107441,VALID,19.8753,VALID,155,VALID,0,
2010-01-17, 03:27:04,VALID,919.464,VALID,0,VALID,96.7869,VALID,0,VALID,19.8963,VALID,155,VALID,0,
2010-01-17, 03:28:04,VALID,919.456,VALID,0,VALID,96.7335,VALID,0,VALID,19.8768,VALID,155,VALID,0,
2010-01-17, 03:29:04,VALID,919.454,VALID,0,VALID,96.6573,VALID,0.107441,VALID,19.8363,VALID,155,VALID,0.575781,
2010-01-17, 03:30:04,VALID,919.438,VALID,0,VALID,96.6725,VALID,0.107441,VALID,19.7973,VALID,155,VALID,0.653516,
2010-01-17, 03:31:04,VALID,919.445,VALID,0,VALID,96.7488,VALID,0,VALID,19.7778,VALID,155,VALID,0.606641,
2010-01-17, 03:32:04,VALID,919.419,VALID,0,VALID,96.7793,VALID,0.107441,VALID,19.7778,VALID,155,VALID,0.646484,
2010-01-17, 03:33:04,VALID,919.393,VALID,0,VALID,96.8326,VALID,0,VALID,19.7373,VALID,155,VALID,0.369141,
2010-01-17, 03:34:04,VALID,919.388,VALID,0,VALID,96.7945,VALID,0,VALID,19.7388,VALID,155,VALID,0.536719,
2010-01-17, 03:35:04,VALID,919.352,VALID,0,VALID,96.825,VALID,0,VALID,19.6983,VALID,155,VALID,0.663672,
2010-01-17, 03:36:04,VALID,919.332,VALID,0,VALID,96.8098,VALID,0,VALID,19.7388,VALID,155,VALID,0.712891,
2010-01-17, 03:37:04,VALID,919.29,VALID,0,VALID,96.8326,VALID,0.107441,VALID,19.6998,VALID,155,VALID,0.861328,
2010-01-17, 03:38:04,VALID,919.288,VALID,0,VALID,96.8326,VALID,0.107441,VALID,19.6803,VALID,155,VALID,0.729688,